Other Surface Observations
Issued by NWS

Home | Current Version | Previous Version | Text Only | Print | Product List | Glossary On
Versions: 1 2 3 4 5 6 7 8 9 10 11 12 13 14 15 16 17 18 19 20 21 22 23 24 25 26 27 28 29 30 31 32 33 34 35 36 37 38 39 40 41 42 43 44 45 46 47 48 49 50
000
SXUS52 KTAE 281119
OSOTAE
OSOTAE
North Florida/South Alabama/Southwest Georgia Weather Roundup
National Weather Service Tallahassee Florida
700 AM EDT SAT MAR 28 2015

Note: "fair" indicates few or no clouds below 12,000 feet with no
significant weather and/or obstructions to visibility.

!FLZ017-115-028-034-025-281200
...North Florida...

CITY           SKY/WX    TMP DP  RH WIND       PRES   REMARKS
TALLAHASSEE    CLEAR     44  36  73 NW7       30.13R WCI  40
APALACHICOLA   CLEAR     45  36  70 NW6       30.15R WCI  42
PERRY          CLEAR     41  38  88 W5        30.13R WCI  38
CROSS CITY       N/A     40  36  86 CALM      30.12R
JACKSONVILLE   PTCLDY    45  35  68 NW9       30.06R WCI  40
$$

!FLZ112-006-005-002-011-281200
...Florida Panhandle...

CITY           SKY/WX    TMP DP  RH WIND       PRES   REMARKS
MARIANNA       CLEAR     41  37  86 W5        30.15R WCI  38
BONIFAY        FAIR      41  36  82 VRB3      30.17R
PANAMA CITY NW FAIR      39  35  86 NW6       30.16R WCI  35
TYNDALL AFB    CLEAR     46  37  71 N7        30.16R WCI  42
TYND DRONE APT FAIR      46  38  75 N8        30.15R WCI  42
DE FUNIAK SPR  NOT AVBL
EGLIN AFB      CLEAR     42  35  76 N7        30.18R WCI  37
DESTIN         CLEAR     46  37  71 N12       30.18R WCI  41
HURLBURT       CLEAR     42  34  73 N8        30.17R WCI  37
CRESTVIEW      CLEAR     40  35  83 N5        30.18R WCI  37
PENSACOLA      CLEAR     44  36  73 N7        30.19R WCI  40
$$

!ALZ063-066-281200
...South Alabama...

CITY           SKY/WX    TMP DP  RH WIND       PRES   REMARKS
DOTHAN         CLEAR     39  34  82 NW7       30.17R WCI  34
OZARK CAIRNS   CLEAR     37  32  82 W5        30.14R WCI  33
FT RUCKER HELI CLEAR     36  33  89 CALM      30.14R
RUCKER HELI 3  FAIR      38  35  87 W3        30.15R
RUCKER HELI 2  FAIR      37  33  85 CALM      30.14R
FLORALA APT    CLEAR     37  35  92 CALM      30.18R
ANDALUSIA      CLEAR     42  34  73 W3        30.16R
TROY           PTCLDY    39  34  82 NW6       30.14R WCI  35
EUFALA         MOCLDY    40  34  79 NW3       30.12R
MOBILE         CLEAR     41  36  82 N6        30.19R WCI  37
$$

!GAZ120>161-281200
...Southwest and South Central Georgia...

CITY           SKY/WX    TMP DP  RH WIND       PRES   REMARKS
THOMASVILLE    FAIR      43  36  75 W5        30.12R WCI  40
BAINBRIDGE     CLEAR     43  37  81 NW7       30.14R WCI  39
MOODY AFB      CLEAR     42  35  75 W6        30.09R WCI  38
VALDOSTA       CLEAR     38  36  92 CALM      30.10R
MOULTRIE       CLEAR     41  37  87 W3        30.11R
BLAKELY        CLEAR     43  36  75 CALM      30.14R
ALBANY         CLEAR     40  33  76 W7        30.14R WCI  35
TIFTON         FAIR      41  34  75 W7        30.09R WCI  36
FITZGERALD     FAIR      42  33  71 NW5       30.10R WCI  39
CORDELE        FAIR      41  34  76 NW7       30.11R WCI  37
AMERICUS       FAIR      37  34  87 NW7       30.11R WCI  32
HOMERVILLE     FAIR      41  37  87 CALM      30.09R
$$

!GMZ750-755-770-775-281200
...Coastal and Buoy Obs...

STATION/POSITION TIME  TEMP    WIND        PRES    VSBY  WAVE
                       AIR SEA DIR/SP/G                  HT/PER
                 (UTC) (F)     (DEG/KT/KT) (MB)    (MI)  (FT/S)
KEATON BEACH     1100   47     330/  5/  7 1020.2R
CEDAR KEY        1100   49     350/ 11/ 15 1019.8R
C TOWER          1100   53     340/ 17/ 18 1020.3R
APALACHICOLA BUO 1050   60 69  340/ 19/ 25 1019.5R         7/ 6
PANAMA CITY BUOY 1050   61 74  340/ 17/ 21 1020.4R         6/ 6
MOBILE BUOY      1050   58 71   10/ 12/ 17 1022.1R         3/ 5
ORANGE BCH AL BU 1050   51 66   10/ 14/ 17 1021.4R         2/ 3
$$



USA.gov is the U.S. government's official web portal to all federal, state and local government web resources and services.